Weather History for Manteo, NC

Change the Weather History Date:

Saturday, July 13, 2013

  Actual Average Record
Temperature  
Mean Temperature 79 °F -  
Max Temperature 85 °F 82 °F 97 °F (1986)
Min Temperature 73 °F 72 °F 53 °F (1978)
Cooling Degree Days 14    
Growing Degree Days 29 (Base 50)    
Moisture  
Dew Point 74 °F    
Average Humidity 83    
Maximum Humidity 100    
Minimum Humidity 65    
Precipitation  
Precipitation 0.13 in - - ()
Sea Level Pressure  
Sea Level Pressure 30.14 in    
Wind  
Wind Speed 7 mph (South)    
Max Wind Speed 17 mph    
Max Gust Speed 25 mph    
Visibility 10 miles    
Events Rain    
Averages and records for this station are not official NWS values.
T = Trace of Precipitation, MM = Missing Value Source: NWS Daily Summary

Daily Weather History Graph

Daily Weather History Graph

Search for Another Location

Airport:

Trip Planner

Search our weather history database for the weather conditions in past years. The results will help you decide how hot, cold, wet, or windy it might be!

Date:

Astronomy

Jul. 13, 2013 Rise Set
Actual Time 5:56 AM EDT 8:20 PM EDT
Civil Twilight 5:27 AM EDT 8:49 PM EDT
Nautical Twilight 4:50 AM EDT 9:25 PM EDT
Astronomical Twilight 4:10 AM EDT 10:05 PM EDT
Moon 10:58 AM EDT (7/13) 11:12 PM EDT (7/13)
Length of Visible Light 15h 22m
Length of Day
14h 23m
Waxing Crescent, 25% of the Moon is Illuminated
Jul 13
Waxing Crescent
Jul 15
First Quarter
Jul 22
Full
Jul 29
Last Quarter
Aug 6
New

Hourly Weather History & Observations

Time (EDT) Temp. Heat Index Dew Point Humidity Pressure Visibility Wind Dir Wind Speed Gust Speed Precip Events Conditions
12:15 AM 75.6 °F - 73.0 °F 92% 30.02 in 10.0 mi SSW 5.8 mph - N/A   Scattered Clouds
12:35 AM 76.1 °F - 73.4 °F 91% 30.03 in 10.0 mi WNW 3.5 mph - N/A   Mostly Cloudy
12:55 AM 74.8 °F - 72.9 °F 94% 30.03 in 10.0 mi Calm Calm - N/A   Mostly Cloudy
1:15 AM 73.8 °F - 73.2 °F 98% 30.03 in 10.0 mi Calm Calm - N/A   Overcast
1:35 AM 74.1 °F - 73.4 °F 98% 30.03 in 10.0 mi Calm Calm - N/A   Overcast
1:55 AM 74.3 °F - 73.4 °F 97% 30.03 in 10.0 mi Calm Calm - N/A   Overcast
2:15 AM 73.9 °F - 73.4 °F 98% 30.03 in 10.0 mi Calm Calm - N/A   Overcast
2:35 AM 73.6 °F - 73.2 °F 99% 30.03 in 10.0 mi Calm Calm - N/A   Overcast
2:55 AM 74.3 °F - 73.4 °F 97% 30.03 in 10.0 mi Calm Calm - N/A   Overcast
3:15 AM 75.0 °F - 73.9 °F 96% 30.03 in 4.0 mi Calm Calm - 0.06 in Rain Heavy Rain
3:35 AM 75.2 °F - 74.3 °F 97% 30.03 in 10.0 mi ENE 3.5 mph - 0.06 in   Overcast
3:55 AM 75.0 °F - 74.3 °F 98% 30.04 in 10.0 mi Calm Calm - 0.06 in   Overcast
4:15 AM 74.8 °F - 74.3 °F 98% 30.04 in 10.0 mi ESE 3.5 mph - N/A   Mostly Cloudy
4:35 AM 74.5 °F - 73.8 °F 98% 30.04 in 10.0 mi Calm Calm - N/A   Scattered Clouds
4:55 AM 73.4 °F - 73.4 °F 100% 30.04 in 7.0 mi NNE 3.5 mph - N/A   Scattered Clouds
5:15 AM 73.4 °F - 73.4 °F 100% 30.04 in 7.0 mi Calm Calm - N/A   Scattered Clouds
5:35 AM 74.3 °F - 74.1 °F 99% 30.05 in 10.0 mi SSE 4.6 mph - N/A   Clear
5:55 AM 74.8 °F - 74.3 °F 98% 30.06 in 10.0 mi SE 3.5 mph - N/A   Scattered Clouds
6:15 AM 75.9 °F - 74.7 °F 96% 30.07 in 10.0 mi SSE 5.8 mph - N/A   Mostly Cloudy
6:35 AM 75.4 °F - 74.1 °F 96% 30.08 in 3.0 mi South 16.1 mph 24.2 mph 0.06 in Rain Rain
6:55 AM 75.9 °F - 73.2 °F 91% 30.09 in 7.0 mi South 9.2 mph 16.1 mph 0.07 in   Overcast
7:15 AM 76.3 °F - 73.8 °F 92% 30.08 in 10.0 mi South 6.9 mph - N/A   Mostly Cloudy
7:35 AM 77.7 °F - 73.8 °F 88% 30.10 in 10.0 mi South 10.4 mph 18.4 mph N/A   Scattered Clouds
7:55 AM 78.1 °F - 73.4 °F 85% 30.11 in 10.0 mi South 11.5 mph - N/A   Mostly Cloudy
8:15 AM 79.7 °F - 74.3 °F 83% 30.11 in 10.0 mi South 13.8 mph - N/A   Mostly Cloudy
8:35 AM 80.1 °F 84.6 °F 74.1 °F 82% 30.13 in 10.0 mi South 12.7 mph - N/A   Scattered Clouds
8:55 AM 80.2 °F 85.0 °F 74.1 °F 82% 30.14 in 10.0 mi SSW 15.0 mph - N/A   Overcast
9:15 AM 80.6 °F 85.9 °F 74.5 °F 82% 30.14 in 10.0 mi South 12.7 mph - N/A   Scattered Clouds
9:35 AM 81.1 °F 86.8 °F 74.3 °F 80% 30.14 in 10.0 mi SSW 13.8 mph 17.3 mph N/A   Clear
9:55 AM 82.4 °F 89.8 °F 75.6 °F 80% 30.15 in 10.0 mi South 11.5 mph - N/A   Scattered Clouds
10:15 AM 82.9 °F 89.4 °F 73.9 °F 74% 30.15 in 10.0 mi South 13.8 mph - N/A   Mostly Cloudy
10:35 AM 83.3 °F 89.9 °F 73.9 °F 73% 30.16 in 10.0 mi South 12.7 mph 19.6 mph N/A   Scattered Clouds
10:55 AM 83.7 °F 90.4 °F 73.9 °F 72% 30.17 in 10.0 mi South 15.0 mph - N/A   Clear
11:15 AM 83.7 °F 90.7 °F 74.1 °F 73% 30.17 in 10.0 mi South 12.7 mph 19.6 mph N/A   Scattered Clouds
11:35 AM 83.7 °F 90.4 °F 73.8 °F 72% 30.18 in 10.0 mi South 15.0 mph 20.7 mph N/A   Scattered Clouds
11:55 AM 84.2 °F 91.6 °F 74.3 °F 72% 30.17 in 10.0 mi South 16.1 mph 21.9 mph N/A   Clear
12:15 PM 84.0 °F 91.5 °F 74.5 °F 73% 30.17 in 10.0 mi South 15.0 mph 19.6 mph N/A   Scattered Clouds
12:35 PM 84.2 °F 90.9 °F 73.4 °F 70% 30.18 in 10.0 mi South 16.1 mph 23.0 mph N/A   Scattered Clouds
12:55 PM 84.2 °F 91.6 °F 74.1 °F 72% 30.18 in 10.0 mi South 16.1 mph - N/A   Scattered Clouds
1:15 PM 84.2 °F 90.9 °F 73.4 °F 70% 30.18 in 10.0 mi South 15.0 mph 24.2 mph N/A   Scattered Clouds
1:35 PM 84.4 °F 91.0 °F 73.4 °F 69% 30.19 in 10.0 mi South 17.3 mph 23.0 mph N/A   Scattered Clouds
1:55 PM 83.8 °F 90.8 °F 73.8 °F 72% 30.19 in 10.0 mi South 16.1 mph 25.3 mph N/A   Mostly Cloudy
2:15 PM 83.8 °F 90.8 °F 73.9 °F 72% 30.18 in 10.0 mi South 16.1 mph 25.3 mph N/A   Overcast
2:35 PM 84.0 °F 90.8 °F 73.8 °F 71% 30.17 in 10.0 mi South 17.3 mph 20.7 mph N/A   Overcast
2:55 PM 84.2 °F 90.6 °F 73.0 °F 69% 30.18 in 10.0 mi South 16.1 mph 23.0 mph N/A   Overcast
3:15 PM 84.0 °F 90.2 °F 73.0 °F 69% 30.18 in 10.0 mi SSE 15.0 mph 23.0 mph N/A   Mostly Cloudy
3:35 PM 85.3 °F 91.5 °F 72.3 °F 65% 30.18 in 10.0 mi South 17.3 mph 23.0 mph N/A   Mostly Cloudy
3:55 PM 85.1 °F 91.8 °F 73.0 °F 67% 30.19 in 10.0 mi South 13.8 mph 20.7 mph N/A   Scattered Clouds
4:15 PM 84.7 °F 91.0 °F 72.5 °F 67% 30.18 in 10.0 mi South 12.7 mph 23.0 mph N/A   Scattered Clouds
4:35 PM 84.4 °F 91.0 °F 73.4 °F 69% 30.18 in 10.0 mi South 15.0 mph 20.7 mph N/A   Clear
4:55 PM 84.0 °F 90.2 °F 73.0 °F 69% 30.18 in 10.0 mi SSE 13.8 mph 18.4 mph N/A   Scattered Clouds
5:15 PM 84.2 °F 90.6 °F 73.0 °F 69% 30.18 in 10.0 mi South 15.0 mph 20.7 mph N/A   Scattered Clouds
5:35 PM 83.8 °F 89.8 °F 72.9 °F 69% 30.18 in 10.0 mi South 15.0 mph 20.7 mph N/A   Scattered Clouds
5:55 PM 83.7 °F 90.1 °F 73.2 °F 71% 30.18 in 10.0 mi South 13.8 mph 20.7 mph N/A   Clear
6:15 PM 83.3 °F 89.3 °F 73.0 °F 71% 30.19 in 10.0 mi South 13.8 mph 19.6 mph N/A   Clear
6:35 PM 82.9 °F 89.1 °F 73.6 °F 73% 30.19 in 10.0 mi South 11.5 mph - N/A   Scattered Clouds
6:55 PM 82.8 °F 89.0 °F 73.6 °F 74% 30.19 in 10.0 mi SSE 10.4 mph - N/A   Mostly Cloudy
7:15 PM 82.0 °F 87.7 °F 73.6 °F 75% 30.20 in 10.0 mi South 10.4 mph 17.3 mph N/A   Scattered Clouds
7:35 PM 81.5 °F 87.2 °F 74.1 °F 78% 30.21 in 10.0 mi South 10.4 mph - N/A   Mostly Cloudy
7:55 PM 81.0 °F 86.3 °F 74.3 °F 80% 30.21 in 10.0 mi South 10.4 mph 16.1 mph N/A   Mostly Cloudy
8:15 PM 80.2 °F 85.2 °F 74.5 °F 83% 30.21 in 10.0 mi South 6.9 mph - N/A   Scattered Clouds
8:35 PM 79.9 °F - 74.8 °F 85% 30.21 in 10.0 mi SSE 8.1 mph - N/A   Mostly Cloudy
8:55 PM 79.7 °F - 74.8 °F 85% 30.22 in 10.0 mi SE 5.8 mph - N/A   Overcast
9:15 PM 78.8 °F - 75.2 °F 89% 30.22 in 10.0 mi SE 6.9 mph - N/A   Mostly Cloudy
9:35 PM 78.3 °F - 75.2 °F 90% 30.24 in 10.0 mi SE 5.8 mph - N/A   Scattered Clouds
9:55 PM 78.1 °F - 75.2 °F 91% 30.24 in 10.0 mi SE 5.8 mph - N/A   Clear
10:15 PM 77.9 °F - 75.2 °F 91% 30.24 in 10.0 mi SE 6.9 mph - N/A   Clear
10:35 PM 77.5 °F - 75.2 °F 92% 30.25 in 10.0 mi SE 5.8 mph - N/A   Clear
10:55 PM 77.5 °F - 75.2 °F 92% 30.25 in 10.0 mi SE 6.9 mph - N/A   Clear
11:15 PM 77.4 °F - 75.0 °F 92% 30.26 in 10.0 mi SE 6.9 mph - N/A   Clear
11:35 PM 77.4 °F - 74.8 °F 92% 30.26 in 10.0 mi SE 8.1 mph - N/A   Clear
11:55 PM 77.4 °F - 75.0 °F 92% 30.26 in 10.0 mi SE 6.9 mph - N/A   Clear